www.pogodaiklimat.ru

Погода и климат >> Архив погоды >> Марокко >> Танжер


ПОГОДА в Танжере

  • Прогноз погоды в Танжере
  • Монитор погоды в Танжере

АРХИВ ПОГОДЫ в Танжере

Время (UTC), дата Ветер
(напр.,м/с)
 
Видим.   Явления Облачность Т
(С)
Тd
(С)
f
(%)
Тe
(С)
Тes
(С)
Комфортность P
(гПа)
Po
(гПа)
Тmin
(С)
Tmax
(С)
R
(мм)
R24
(мм)
S
(см)
12 11.07 З 11 10 км ясно +25.4 +17.1 60 +29 +29 душно 1012.7 1010.3
15 11.07 З 9-12
{15}
10 км ясно +25.3 +18.0 64 +30 +31 душно 1012.2 1009.8
18 11.07 З 8-11
{12}
10 км ясно +23.9 +18.1 70 +28 +29 душно 1012.4 1010.0 +27.8
21 11.07 ЮЗ 4 10 км 3/3 480 м
[Cu hum Ci fib]
+22.0 +18.6 81 +27 +27 душно 1015.0 1012.6
00 12.07 С 3 10 км 5/3 480 м
[Cu hum Ci fib]
+21.0 +18.0 83 +26 +26 душно 1015.2 1012.7
03 12.07 С 1 6000 м н/о +21.0 +18.4 85 +26 +26 душно 1014.4 1011.9
06 12.07 З 1 5000 м 9/8 400 м
[Cu med, cong Ci sp]
+21.3 +18.7 85 +26 +26 душно 1015.3 1012.9 +20.4
09 12.07 З 5-10
{12}
4000 м дымка 10/10 330 м
[Cu Sc]
+23.3 +18.8 76 +30 +30 очень
душно
1015.4 1013.0
12 12.07 СЗ 6-11
{12}
6000 м 9/9 480 м
[Cu Sc]
+25.3 +18.5 66 +30 +31 душно 1015.5 1013.1
15 12.07 СЗ 9 6000 м 9/9 480 м
[Cu Sc Ac und Ci fib]
+23.6 +18.5 73 +28 +28 душно 1015.6 1013.1
18 12.07 З 6 6000 м 8/4 400 м
[Cu Sc Ac und Ci fib]
+23.1 +18.4 75 +29 +29 очень
душно
1015.8 1013.3 +26.0
21 12.07 З 3-4
{6}
8000 м 8/5 480 м
[Cu med, cong Ci sp]
+21.4 +18.6 84 +26 +26 душно 1017.6 1015.1
00 13.07 штиль 0 6000 м 8/3 480 м
[Cu med, cong Ci sp]
+18.8 +16.8 88 +20 +20 1017.7 1015.2
03 13.07 З 1 3000 м дымка 8/8 180 м
[Cu Sc]
+19.7 +18.4 92 +23 +23 комфорт 1016.6 1014.1
06 13.07 ЮЗ 6-8
{9}
3000 м дымка 9/9 180 м
[Cu Sc]
+20.0 +18.7 92 +23 +23 комфорт 1016.7 1014.2 +17.6
09 13.07 З 6 6000 м 4/4 330 м
[Cu hum]
+23.4 +17.8 71 +29 +32 душно 1017.4 1014.9
12 13.07 З 11 10 км 3/3 480 м
[Cu hum]
+25.7 +17.6 61 +30 +30 душно 1017.4 1015.0
15 13.07 З 10 10 км 3/3 480 м
[Cu hum]
+25.8 +17.7 61 +30 +31 душно 1016.4 1014.0
18 13.07 З 10 10 км 3/3 480 м
[Cu hum]
+23.8 +17.5 68 +28 +28 душно 1015.8 1013.4 +26.2
21 13.07 З 6 10 км 3/3 600 м
[Cu hum]
+20.9 +17.7 82 +25 +25 комфорт 1017.6 1015.1
00 14.07 ЮЗ 5 10 км 5/5 480 м
[Cu hum]
+20.7 +17.7 83 +24 +24 комфорт 1017.6 1015.1
03 14.07 Ю 5 10 км 3/3 450 м
[Cu hum]
+19.7 +17.3 86 +22 +22 комфорт 1015.9 1013.4
06 14.07 ЮЗ 5 4000 м дымка 3/3 480 м
[Cu hum]
+19.3 +16.7 85 +21 +21 комфорт 1016.4 1013.9 +19.0
09 14.07 ЮЗ 7 10 км 6/6 450 м
[Cu med, cong]
+22.8 +17.0 70 +28 +29 душно 1016.9 1014.5
12 14.07 З 12 10 км 4/4 480 м
[Cu hum]
+25.0 +16.4 59 +28 +28 жарко 1017.0 1014.6
15 14.07 З 11 10 км 8/8 450 м
[Cu med, cong]
+24.7 +17.2 63 +29 +29 душно 1016.1 1013.7
18 14.07 З 9 10 км 8/8 400 м
[Cu med, cong]
+22.1 +16.8 72 +26 +26 душно 1015.4 1013.0 +25.4
21 14.07 З 6 8000 м 9/9 300 м
[Cu Sc]
+20.9 +17.5 81 +25 +25 комфорт 1016.0 1013.5
00 15.07 ЮЗ 7 8000 м 9/9 300 м
[Cu Sc]
+20.9 +17.5 81 +25 +25 комфорт 1015.9 1013.4
03 15.07 ЮЗ 8 8000 м 9/9 300 м
[Cu Sc]
+21.2 +17.2 78 +25 +25 комфорт 1015.0 1012.5
06 15.07 ЮЗ 9 10 км 10/10 400 м
[Cu Sc]
+21.2 +16.6 75 +25 +25 комфорт 1015.2 1012.7 +20.8
09 15.07 ЮЗ 12 10 км 9/9 480 м
[Sc]
+22.9 +16.4 67 +28 +28 душно 1015.7 1013.3
12 15.07 З 12 10 км 5/5 540 м
[Cu med, cong]
+24.9 +16.1 58 +28 +28 жарко 1015.7 1013.3
15 15.07 З 10-15
{18}
10 км 3/3 540 м
[Cu hum]
+24.4 +15.9 59 +28 +28 душно 1014.7 1012.3
18 15.07 З 7-10
{13}
10 км 1/1 480 м
[Cu med, cong]
+22.9 +16.4 67 +28 +28 душно 1013.8 1011.4 +25.3
21 15.07 З 3 8000 м 1/1 330 м
[Cu med, cong]
+19.8 +16.8 83 +23 +23 комфорт 1014.5 1012.0
00 16.07 ЮЗ 8 10 км 4/4 300 м
[Cu med, cong]
+20.5 +17.1 81 +23 +23 комфорт 1014.9 1012.4
03 16.07 ЮЗ 9 10 км 6/6 400 м
[Cu med, cong]
+20.1 +15.9 77 +22 +22 комфорт 1014.1 1011.6
06 16.07 ЮЗ 11 10 км 9/9 400 м
[Sc]
+20.0 +15.6 76 +22 +22 комфорт 1014.5 1012.0 +19.2
09 16.07 З 12 10 км 5/5 480 м
[Sc]
+22.9 +15.5 63 +27 +27 душно 1014.8 1012.3
12 16.07 З 10 10 км 3/3 480 м
[Cu hum Ci fib]
+23.9 +16.2 62 +27 +28 жарко 1015.3 1012.8
15 16.07 З 8-12
{14}
10 км ясно +24.6 +16.1 59 +28 +30 душно 1014.5 1012.1
18 16.07 З 6-9
{12}
10 км ясно +23.3 +16.6 66 +28 +29 душно 1013.8 1011.4 +25.0
21 16.07 ЮЗ 7 8000 м 5/5 330 м
[Cu Sc]
+21.0 +17.6 81 +25 +25 комфорт 1015.4 1013.9
00 17.07 ЮЗ 10 8000 м 4/4 400 м
[Cu med, cong]
+21.6 +17.2 76 +26 +26 душно 1016.0 1013.6
03 17.07 ЮЗ 10 8000 м 4/4 480 м
[Cu med, cong]
+21.0 +16.4 75 +24 +24 комфорт 1015.0 1012.5
06 17.07 З 12 10 км 6/6 700 м
[Cu med, cong]
+20.8 +15.4 71 +23 +23 комфорт 1015.6 1013.1 +20.6
09 17.07 ЮЗ 16-23
{24}
10 км 9/9 700 м
[Cu Sc]
+23.0 +13.5 55 +26 +26 жарко 1016.8 1014.4
12 17.07 З 19-26
{27}
10 км 3/3 900 м
[Sc]
+24.5 +14.6 54 +27 +27 жарко 1017.0 1014.6
15 17.07 З 18 10 км 1/1 900 м
[Sc]
+24.0 +12.9 50 +26 +26 жарко 1016.2 1013.7
18 17.07 З 10 10 км 5/5 700 м
[Sc]
+22.1 +14.2 61 +25 +25 комфорт 1015.5 1013.0 +24.9
21 17.07 ЮЗ 7-10
{12}
24 км 8/8 480 м
[Cu Sc]
+20.3 +14.7 70 +22 +22 комфорт 1016.7 1014.2
00 18.07 ЮЗ 5-8
{8}
10 км 3/3 480 м
[Cu med, cong]
+19.0 +14.5 75 +20 +20 1016.9 1014.4
03 18.07 ЮЗ 5 10 км 3/3 480 м
[Cu med, cong]
+17.9 +13.8 77 +17 +17 1015.6 1013.1
06 18.07 ЮЗ 4-8
{10}
10 км ясно +17.9 +13.6 76 +18 +18 1015.3 1012.8 +17.7

 

Местоположение метеостанции Танжер (Марокко): широта 35.73 долгота -5.90 высота над уровнем моря 21 м.

В архиве по умолчанию представлена погода в Танжере за последнюю неделю. Архивные данные за месяц целиком и за предыдущие месяцы, начиная с января 2011 года, Вы можете получить, выбрав интересующий диапазон дат из раскрывающегося списка и нажав кнопку "Ввод!".


*Определитесь, кто Вы:
робот инопланетянин человек

Внимание! Время в таблицах - всемирное. Для получения местного времени необходимо прибавить поправку, которая равна 0 ч.

Смотрите также архив погоды в соседних городах и на ближайших метеорологических станциях:

Погода в Танжер порту (Марокко) (11 км)
Погода в Тарифе (Испания) (42 км)
Погода в Сеуте (Испания) (54 км)
Погода в Тетуане (Марокко) (54 км)
Погода в Вехер-де-ла-Фронтера (Испания) (58 км)
Погода в Эль-Араише (Марокко) (65 км)
Погода Гибралтаре (Гибралтар) (68 км)
Погода в Сан-Фернандо (Испания) (87 км)
Погода в Шавене (Марокко) (91 км)
Погода в Кадисской бухте (Испания) (92 км)

Пояснения к столбцам:

Ветер - указаны скорость ветра в м/с - средняя за 10 мин, порывы в срок и между сроками (в фигурных скобках) и направление, откуда дует ветер: С - северный, СВ - северо-восточный, В - восточный, ЮВ - юго-восточный, Ю - южный, ЮЗ - юго-западный, З - западный, СЗ - северо-западный.
Видимость - горизонтальная дальность видимости в метрах или километрах. При видимости от 1 до 10 км при отсутствии осадков обычно наблюдается дымка, при ухудшении видимости до 1 км и менее - туман. В сухую погоду видимость может ухудшаться дымом, пылью или мглою.
Явления - указаны атмосферные явления, наблюдавшиеся в срок или в последний час перед сроком; фигурными скобками обозначены явления, наблюдавшиеся между сроками (за 1-3 часа до срока); квадратными скобками обозначены град или гололедные отложения с указанием их диаметра в мм.
Облачность - указаны через наклонную черту общая и нижняя облачность в баллах и высота нижней границы облаков в метрах; квадратными скобками обозначены формы облаков: Ci - перистые, Cs - перисто-слоистые, Cc - перисто-кучевые, Ac - высококучевые, As - высокослоистые, Sc - слоисто-кучевые, Ns - слоисто-дождевые, Cu - кучевые, Cb - кучево-дождевые. Подробнее классификацию облаков см. в Атласе облаков (PDF).
T - Температура воздуха - температура, измеренная на высоте 2 м над землей.
Td - Температура точки росы - температура, при понижении до которой содержащийся в воздухе водяной пар достигнет насыщения.
f - Относительная влажность воздуха - влажноcть воздуха, измеренная на высоте 2 м над землей.
Te - Эффективная температура - температура, которую ощущает одетый по сезону человек в тени. Характеристика душности погоды. При расчете учитывается влияние влажности воздуха и скорости ветра на теплоощущения человека.
Tes - Эффективная температура на солнце - температура, которую ощущает человек, с поправкой на солнечный нагрев. Характеристика знойности погоды. Зависит от высоты солнца над горизонтом, облачности и скорости ветра. Ночью, в пасмурную погоду, а также при ветре 12 м/с и более поправка равна нулю.
P - Атмосферное давление - приведенное к уровню моря атмосферное давление.
Po - Атмосферное давление - измеренное на уровне метеостанции атмосферное давление.
Tmin - Минимальная температура - минимум температуры воздуха на высоте 2 м над землей.
Tmax - Максимальная температура - максимум температуры воздуха на высоте 2 м над землей.
R - Количество осадков - Количество выпавших осадков за период времени, мм. При наведении курсора мыши на число - период времени, за который выпало указанное количество осадков.
R24 - Количество осадков - Количество выпавших осадков за 24 часа, мм.
S - Снежный покров - Высота снежного покрова, см. При наведении курсора мыши на число - состояние снежного покрова и степень покрытия местности в баллах.